This demonstration page uses our WeatherBlox Daily Observations layout. Learn more.

39.08367, -84.50855

Hourly Observations for June 16, 2019

Temp ( °F °C ) Dew Point ( °F °C ) Humidity (%) Winds ( mph kmh ) Pressure ( in mb ) Visibility ( mi km ) Precip ( " mm )
12:09 am 00:09 Cloudy with Nearby Thunderstorms 70 21.1 68 20 93 93 SW 13 20 29.88 1012 5 8.04672 0.05 1.27
12:19 am 00:19 Cloudy with Light Thunderstorms 70 21.1 68 20 93 93 SW 12 19 29.88 1012 8 12.874752 0.06 1.524
12:27 am 00:27 Cloudy with Heavy Thunderstorms 70 21.1 68 20 93 93 SW 21 33 29.88 1012 1.75 2.816352 0.22 5.588
12:34 am 00:34 Cloudy with Nearby Thunderstorms 69 20.6 69 20.6 100 100 SSW 9 15 29.85 1011 1.5 2.414016 0.25 6.35
12:37 am 00:37 Cloudy with Nearby Thunderstorms 69 20.6 69 20.6 100 100 SW 14 22 29.85 1011 3 4.828032 0.25 6.35
12:53 am 00:53 Cloudy with Nearby Thunderstorms 70 21.1 67 19.4 90 90 SSW 13 20 29.83 1010 5 8.04672 0.28 7.112
1:10 am 01:10 Cloudy with Nearby Thunderstorms 69 20.6 68 20 96 96 SSW 8 13 29.85 1011 2 3.218688 0.11 2.794
1:14 am 01:14 Mostly Cloudy with Heavy Rain 69 20.6 68 20 96 96 S 8 13 29.85 1011 1.75 2.816352 0.16 4.064
1:22 am 01:22 Cloudy with Thunderstorms 69 20.6 68 20 96 96 SW 7 11 29.85 1011 2 3.218688 0.2 5.08
1:43 am 01:43 Cloudy with Nearby Thunderstorms 69 20.6 68 20 96 96 SSW 6 9 29.85 1011 1.75 2.816352 0.34 8.636
1:51 am 01:51 Cloudy with Rain 70 21 68 20 94 94 VRB 3 6 29.85 1011 1.5 2.414016 0.42 10.668
1:53 am 01:53 Cloudy with Light Rain 69 20.6 68 20 96 96 VRB 6 9 29.83 1010 1.75 2.816352 0.43 10.922
1:56 am 01:56 Cloudy with Heavy Rain 69 20.6 68 20 96 96 VRB 7 11 29.85 1011 3 4.828032 0.02 0.508
1:59 am 01:59 Cloudy with Nearby Thunderstorms 70 21.1 68 20 93 93 VRB 7 11 29.85 1011 2.5 4.02336 0.05 1.27
2:07 am 02:07 Cloudy with Nearby Thunderstorms 70 21.1 68 20 93 93 VRB 5 7 29.85 1011 1.5 2.414016 0.19 4.826
2:30 am 02:30 Cloudy with Heavy Thunderstorms 70 21.1 68 20 93 93 WNW 12 19 29.85 1011 1 1.609344 0.73 18.542
2:37 am 02:37 Cloudy with Heavy Thunderstorms 69 20.6 66 18.9 90 90 W 10 17 29.85 1011 0.75 1.207008 1 25.4
2:53 am 02:53 Cloudy with Heavy Thunderstorms 69 20.6 68 20 96 96 S 8 13 29.83 1010 0.75 1.207008 1.52 38.608
3:00 am 03:00 Cloudy with Nearby Thunderstorms 70 21.1 68 20 93 93 S 3 6 29.83 1010 2 3.218688 0.03 0.762
3:02 am 03:02 Cloudy with Nearby Thunderstorms 70 21.1 68 20 93 93 SSE 6 9 29.83 1010 3 4.828032 0.03 0.762
3:11 am 03:11 Cloudy with Light Thunderstorms 70 21.1 68 20 93 93 SW 3 6 29.85 1011 10 16.09344 0.03 0.762
3:29 am 03:29 Cloudy with Nearby Thunderstorms 70 21.1 69 20.6 97 97 S 8 13 29.83 1010 10 16.09344 0.03 0.762
3:38 am 03:38 Cloudy 70 21.1 68 20 93 93 SSW 3 6 29.83 1010 10 16.09344 0.03 0.762
3:45 am 03:45 Cloudy with Nearby Thunderstorms 70 21.1 68 20 93 93 VRB 5 7 29.83 1010 10 16.09344 0.03 0.762
3:53 am 03:53 Cloudy with Nearby Thunderstorms 70 21.1 68 20 93 93 Calm 29.83 1010 10 16.09344 0.03 0.762
4:00 am 04:00 Cloudy 70 21.1 68 20 93 93 SSE 5 7 29.83 1010 9 14.484096 0 0
4:53 am 04:53 Mostly Cloudy 68 20 67 19.4 96 96 Calm 29.8 1009 10 16.09344 0 0
5:53 am 05:53 Partly Cloudy with Light Rain 69 20.6 67 19.4 93 93 SSW 8 13 29.8 1009 9 14.484096 0.04 1.016
6:14 am 06:14 Mostly Cloudy with Nearby Thunderstorms 69 20.6 67 19.4 93 93 SSW 9 15 29.83 1010 9 14.484096 0.01 0.254
6:22 am 06:22 Mostly Cloudy with Heavy Thunderstorms 69 20.6 67 19.4 93 93 WSW 13 20 29.85 1011 2.5 4.02336 0.08 2.032
6:29 am 06:29 Cloudy with Heavy Thunderstorms 68 20 67 19.4 96 96 SW 16 26 29.85 1011 1.25 2.01168 0.27 6.858
6:35 am 06:35 Cloudy with Nearby Thunderstorms 69 20.6 67 19.4 93 93 SSW 15 24 29.85 1011 1.25 2.01168 0.32 8.128
6:39 am 06:39 Cloudy with Nearby Thunderstorms 69 20.6 68 20 96 96 SSW 12 19 29.83 1010 2 3.218688 0.35 8.89
6:48 am 06:48 Cloudy with Nearby Thunderstorms 70 21 66 19 88 88 WSW 22 35 29.88 1012 3 4.828032 0.39 9.906
6:53 am 06:53 Cloudy with Thunderstorms 68 20 66 18.9 93 93 SW 22 35 29.85 1011 3 4.828032 0.45 11.43
7:08 am 07:08 Cloudy with Thunderstorms 68 20 65 18.3 90 90 SW 16 26 29.88 1012 5 8.04672 0.14 3.556
7:44 am 07:44 Mostly Cloudy with Light Rain 67 19.4 65 18.3 93 93 SSW 9 15 29.88 1012 7 11.265408 0.2 5.08
7:53 am 07:53 Mostly Cloudy with Light Rain 67 19.4 65 18.3 93 93 SSW 9 15 29.85 1011 10 16.09344 0.2 5.08
8:53 am 08:53 Mostly Sunny 68 20 66 18.9 93 93 SSW 8 13 29.85 1011 10 16.09344 0.02 0.508
9:32 am 09:32 Mostly Cloudy 70 21.1 67 19.4 90 90 SSW 9 15 29.88 1012 10 16.09344 0 0
9:53 am 09:53 Partly Cloudy 71 21.7 67 19.4 87 87 SSW 10 17 29.85 1011 10 16.09344 0 0
10:53 am 10:53 Mostly Sunny 74 23.3 67 19.4 79 79 SSW 15 24 29.91 1013 10 16.09344 0 0
11:19 am 11:19 Mostly Cloudy with Nearby Thunderstorms 71 21.7 66 18.9 84 84 SSW 13 20 29.91 1013 6 9.656064 0.02 0.508
11:28 am 11:28 Mostly Cloudy with Light Thunderstorms 69 20.6 66 18.9 90 90 SW 8 13 29.91 1013 6 9.656064 0.03 0.762
11:53 am 11:53 Mostly Cloudy with Light Rain 69 20.6 66 18.9 90 90 SSW 14 22 29.88 1012 10 16.09344 0.07 1.778
12:11 pm 12:11 Mostly Cloudy with Thunderstorms 68 20 65 18.3 90 90 SSW 10 17 29.91 1013 7 11.265408 0.01 0.254
12:53 pm 12:53 Mostly Cloudy with Thunderstorms 68 20 66 18.9 93 93 SSW 8 13 29.88 1012 7 11.265408 0.05 1.27
1:40 pm 13:40 Partly Cloudy 70 21.1 66 18.9 87 87 VRB 3 6 29.91 1013 10 16.09344 0.01 0.254
1:53 pm 13:53 Partly Cloudy with Thunderstorms 69 20.6 66 18.9 90 90 WSW 3 6 29.88 1012 10 16.09344 0.01 0.254
2:02 pm 14:02 Mostly Cloudy with Light Thunderstorms 70 21.1 67 19.4 90 90 SSW 8 13 29.91 1013 3 4.828032 0.05 1.27
2:20 pm 14:20 Cloudy 71 21.7 69 20.6 94 94 SSE 7 11 29.91 1013 7 11.265408 0.08 2.032
2:53 pm 14:53 Mostly Cloudy 73 22.8 69 20.6 87 87 S 7 11 29.88 1012 10 16.09344 0.08 2.032
3:53 pm 15:53 Partly Cloudy 79 26.1 72 22.2 79 79 SSW 6 9 29.85 1011 10 16.09344 0 0
4:53 pm 16:53 Sunny 81 27.2 73 22.8 77 77 SW 5 7 29.85 1011 10 16.09344 0 0
5:53 pm 17:53 Partly Cloudy with Light Thunderstorms 79 26.1 73 22.8 82 82 SW 12 19 29.85 1011 7 11.265408 0.01 0.254
6:53 pm 18:53 Mostly Cloudy with Light Rain 73 22.8 66 18.9 79 79 WSW 8 13 29.77 1008 8 12.874752 0.07 1.778
7:53 pm 19:53 Sunny 72 22.2 68 20 87 87 VRB 3 6 29.83 1010 10 16.09344 0.001 0.001
8:53 pm 20:53 Partly Cloudy with Light Rain 70 21.1 69 20.6 97 97 S 7 11 29.85 1011 8 12.874752 0.001 0.001
9:53 pm 21:53 Mostly Clear with Light Rain 70 21.1 69 20.6 97 97 SSW 9 15 29.88 1012 7 11.265408 0.07 1.778
10:09 pm 22:09 Mostly Cloudy with Light Thunderstorms 70 21.1 68 20 93 93 S 5 7 29.91 1013 8 12.874752 0.02 0.508
10:53 pm 22:53 Mostly Clear with Light Rain 68 20 67 19.4 96 96 S 8 13 29.88 1012 10 16.09344 0.06 1.524
11:53 pm 23:53 Mostly Clear with Light Rain 68 20 67 19.4 96 96 S 10 17 29.94 1014 10 16.09344 0.05 1.27

Powered by AerisWeather